FENGYUN 1C DEB, 29796

Orbit data source: Space-Track

FENGYUN 1C DEB, 29796 is space debris in SSO originally from a launch on Mon, 10 May 1999 UTC launched from the Taiyaun Space Center, China (TSC). Fengyun 1C debris stems from the Chinese weather satellite Fengyun-1C, which was intentionally destroyed by a Chinese anti-satellite missile in 2007. This event dramatically increased the amount of space debris, with thousands of trackable fragments posing hazards to satellites and human spaceflight. The Fengyun 1C debris cloud has become a focal point in discussions about space sustainability and the need for international regulations to prevent the creation of new debris.

Loading next visibility...
Identifier
29796, 1999-025CN
Orbit
SSO
Country
Flag of CNCN / PRC
Related business
Manufacturer
Unknown
Mission
Spacecraft
Bus & Motor
Unknown
Mass
Unknown
Launch date (UTC)
1999-05-10 (27 years ago)
Launch vehicle
Unknown
Launch site
Taiyaun Space Center, China (TSC)
Object type
Payload
Rocket body
Debris
Shape & HBR
Unknown shape, 0.2 m
Radar Cross Section
Medium (>0.1 m² and <1 m²)

Expand to show TLE details & history
Last TLE update: 19 hours ago

TLE from 19 hours ago
0 FENGYUN 1C DEB
1 29796U 99025CN  26235.38559091  .00000755  00000-0  42415-3 0  9992
2 29796  98.8397 289.2361 0050705 269.1263 152.0708 14.12916226  6403
Epoch: 2026-08-23T09:15Z
TLE epoch observation values (Epoch: 2026-08-23T09:15:15.054Z)
Latitude
60.33549°
Longitude
162.98075°
Altitude
892.071 km
Speed
7.395 km/s
True Right ascension
18h 13m 54s
True Declination
60° 11' 24"
Sunlit
Object was in daylight at epoch
Visualization orbit readout
Latitude
Unknown
Longitude
Unknown
Altitude
Unknown
Speed
Unknown
Apparent Right ascension
Unknown
Apparent Declination
Unknown
Sunlit
N/A
Visualization observer readout
Local Sidereal Time
19:31:24
Azimuth
Unknown
Elevation
Unknown
Doppler factor
Unknown
Orbital elements
Apogee altitude
883.217 km
Perigee altitude
809.951 km
Semi-major axis
7,224.721 km
Eccentricity
0.00507
Inclination
98.8397°
RAAN
289.2361°
Arg. of periapsis
269.1263°
True anomaly
152.34143°
Mean anomaly
152.0708°
Eccentric anomaly
152.20627°
Mean motion
3.53437 °/min
Orbital period
101.86 mins
BSTAR
0.00042415
Loading maneuver chart data...
Computing Atmospheric mass density...

Documentation

Showing up to 5 results
|